TimeEST,TemperatureF,Dew PointF,Humidity,Sea Level PressureIn,VisibilityMPH,Wind Direction,Wind SpeedMPH,Gust SpeedMPH,PrecipitationIn,Events,Conditions,WindDirDegrees,DateUTC
12:54 AM,21.9,19.9,92,29.92,5.0,Calm,Calm,-,0.00,Snow,Light Snow,0,2013-02-06 05:54:00
1:16 AM,21.9,19.9,92,29.88,6.0,West,3.5,-,0.00,Snow,Light Snow,280,2013-02-06 06:16:00
1:54 AM,21.9,19.9,92,29.92,4.0,Calm,Calm,-,0.00,Snow,Light Snow,0,2013-02-06 06:54:00
2:37 AM,21.9,19.9,92,29.87,3.0,Calm,Calm,-,0.00,Snow,Light Snow,0,2013-02-06 07:37:00
2:54 AM,21.9,19.9,92,29.90,4.0,Calm,Calm,-,0.00,Snow,Light Snow,0,2013-02-06 07:54:00
3:54 AM,21.9,19.9,92,29.91,8.0,Calm,Calm,-,0.00,,Overcast,0,2013-02-06 08:54:00
4:54 AM,21.9,19.9,92,29.92,10.0,SW,3.5,-,N/A,,Overcast,230,2013-02-06 09:54:00
5:54 AM,23.0,21.0,92,29.94,7.0,WSW,4.6,-,0.00,Snow,Light Snow,240,2013-02-06 10:54:00
6:54 AM,23.0,19.9,88,29.96,10.0,West,8.1,-,0.00,,Mostly Cloudy,260,2013-02-06 11:54:00
7:08 AM,23.0,21.0,92,29.91,7.0,West,9.2,-,N/A,,Mostly Cloudy,260,2013-02-06 12:08:00
7:35 AM,23.0,21.0,92,29.92,2.0,West,10.4,-,N/A,,Overcast,270,2013-02-06 12:35:00
7:54 AM,23.0,21.0,92,29.98,2.0,West,10.4,-,N/A,,Overcast,270,2013-02-06 12:54:00
8:14 AM,23.0,21.9,96,29.94,4.0,West,8.1,-,N/A,,Mostly Cloudy,260,2013-02-06 13:14:00
8:21 AM,24.1,21.9,91,29.94,6.0,West,6.9,-,N/A,,Scattered Clouds,260,2013-02-06 13:21:00
8:54 AM,24.1,21.0,88,30.00,5.0,West,10.4,-,N/A,,Partly Cloudy,270,2013-02-06 13:54:00
9:54 AM,28.0,21.9,78,30.00,9.0,WSW,9.2,-,N/A,,Mostly Cloudy,250,2013-02-06 14:54:00
10:54 AM,30.0,19.9,66,30.01,10.0,WSW,10.4,-,N/A,,Mostly Cloudy,250,2013-02-06 15:54:00
11:54 AM,32.0,19.9,61,30.00,10.0,West,12.7,20.7,N/A,,Partly Cloudy,260,2013-02-06 16:54:00
12:54 PM,30.9,19.0,61,30.00,9.0,West,13.8,20.7,0.00,Snow,Light Snow,280,2013-02-06 17:54:00
1:54 PM,34.0,18.0,52,30.00,10.0,West,17.3,24.2,0.00,,Overcast,270,2013-02-06 18:54:00
2:54 PM,32.0,16.0,52,30.03,10.0,WNW,13.8,23.0,N/A,,Overcast,290,2013-02-06 19:54:00
3:54 PM,32.0,12.9,45,30.05,10.0,West,17.3,27.6,N/A,,Clear,280,2013-02-06 20:54:00
4:54 PM,30.9,8.1,38,30.08,10.0,WNW,15.0,27.6,N/A,,Clear,290,2013-02-06 21:54:00
5:54 PM,28.9,6.1,38,30.12,10.0,West,17.3,28.8,N/A,,Clear,280,2013-02-06 22:54:00
6:54 PM,27.0,3.0,36,30.17,10.0,West,19.6,26.5,N/A,,Clear,280,2013-02-06 23:54:00
7:54 PM,26.1,5.0,41,30.19,10.0,West,11.5,-,N/A,,Clear,280,2013-02-07 00:54:00
8:54 PM,24.1,3.0,40,30.22,10.0,West,8.1,-,N/A,,Clear,260,2013-02-07 01:54:00
9:54 PM,23.0,-0.0,37,30.25,10.0,West,10.4,-,N/A,,Clear,270,2013-02-07 02:54:00
10:54 PM,21.9,-0.0,38,30.26,10.0,WNW,12.7,-,N/A,,Clear,300,2013-02-07 03:54:00
11:54 PM,21.0,1.0,42,30.29,10.0,West,9.2,-,N/A,,Clear,280,2013-02-07 04:54:00